logo tempoitalia

Diretta Meteo Beziers-Vias, Francialunedì 31 agosto ore 07:00

Mappa
Sereno 21 °C Sereno 24 Ore: T.min 20 T.max 32
Ponente Ovest Km/h 7.4 Punto di rugiada: 17 °C Umidità: 77% Visibilità: 10 Km
Il sole sorge alle: 07:09 Il sole tramonta alle: 20:24
31 Agosto 2026 07:00 tempo osservato: Sereno Sereno 21 77 1018 vento: Nord O 7.4
31 Agosto 2026 06:30 tempo osservato: Sereno Sereno 20 82 1018 vento: Nord N 5.5
31 Agosto 2026 06:00 tempo osservato: Sereno Sereno 20 88 1017 vento: Nord O/NO 7.4
31 Agosto 2026 05:30 tempo osservato: Sereno Sereno 21 82 1017 vento: Nord O/NO 7.4
31 Agosto 2026 05:00 tempo osservato: Sereno Sereno 21 82 1017 vento: Nord O/NO 11.1
31 Agosto 2026 04:30 tempo osservato: Sereno Sereno 21 82 1017 vento: Nord O 9.3
31 Agosto 2026 04:00 tempo osservato: Sereno Sereno 21 77 1017 vento: Nord O 9.3
31 Agosto 2026 03:30 tempo osservato: Sereno Sereno 21 82 1017 vento: Nord O/NO 13
31 Agosto 2026 03:00 tempo osservato: Sereno Sereno 21 82 1017 vento: Nord N 5.5
31 Agosto 2026 02:30 tempo osservato: Sereno Sereno 21 82 1016 vento: Nord NO 7.4
31 Agosto 2026 02:00 tempo osservato: Sereno Sereno 21 88 1016 vento: Nord O 9.3
31 Agosto 2026 01:30 tempo osservato: Sereno Sereno 21 88 1016 vento: Nord O 9.3
31 Agosto 2026 01:00 tempo osservato: Sereno Sereno 21 88 1016 vento: Nord N 1.8
31 Agosto 2026 00:30 tempo osservato: Sereno Sereno 22 83 1016 vento: Nord N 5.5
31 Agosto 2026 00:00 tempo osservato: Sereno Sereno 22 83 1016 vento: Nord N 5.5
30 Agosto 2026 23:30 tempo osservato: Sereno Sereno 22 83 1016 vento: Nord O/NO 7.4
30 Agosto 2026 23:00 tempo osservato: Sereno Sereno 23 83 1015 vento: Nord N 3.7
30 Agosto 2026 22:30 tempo osservato: Sereno Sereno 23 78 1015 vento: Nord N 3.7
30 Agosto 2026 22:00 tempo osservato: Sereno Sereno 23 78 1015 vento: Nord N 5.5
30 Agosto 2026 21:30 tempo osservato: Sereno Sereno 24 73 1015 vento: Nord N 7.4
30 Agosto 2026 21:00 tempo osservato: Sereno Sereno 24 73 1015 vento: Nord N 5.5
30 Agosto 2026 20:30 tempo osservato: Sereno Sereno 25 73 1015 vento: Nord N 1.8
30 Agosto 2026 20:00 tempo osservato: Sereno Sereno 26 65 1014 vento: Nord N 5.5
30 Agosto 2026 19:30 tempo osservato: Sereno Sereno 27 57 1014 vento: Nord S 11.1
30 Agosto 2026 19:00 tempo osservato: Sereno Sereno 28 48 1014 vento: Nord S 13
30 Agosto 2026 18:30 tempo osservato: Sereno Sereno 29 45 1014 vento: Nord S 16.7
30 Agosto 2026 18:00 tempo osservato: Sereno Sereno 29 45 1014 vento: Nord S 14.8
30 Agosto 2026 17:30 tempo osservato: Sereno Sereno 30 40 1014 vento: Nord S 18.5
30 Agosto 2026 17:00 tempo osservato: Sereno Sereno 30 42 1015 vento: Nord S 14.8
30 Agosto 2026 16:30 tempo osservato: Sereno Sereno 30 40 1015 vento: Nord S 18.5
30 Agosto 2026 16:00 tempo osservato: Sereno Sereno 31 37 1015 vento: Nord S 16.7
30 Agosto 2026 15:30 tempo osservato: Sereno Sereno 31 35 1015 vento: Nord S 16.7
30 Agosto 2026 15:00 tempo osservato: Sereno Sereno 31 33 1015 vento: Nord S 16.7
30 Agosto 2026 14:30 tempo osservato: Sereno Sereno 31 35 1015 vento: Nord S 16.7
30 Agosto 2026 14:00 tempo osservato: Sereno Sereno 31 37 1015 vento: Nord S 14.8
30 Agosto 2026 13:30 tempo osservato: Sereno Sereno 32 35 1015 vento: Nord S 11.1
30 Agosto 2026 13:00 tempo osservato: Sereno Sereno 31 35 1016 vento: Nord SO 7.4
30 Agosto 2026 12:30 tempo osservato: Sereno Sereno 31 37 1016 vento: Nord O 7.4
30 Agosto 2026 12:00 tempo osservato: Sereno Sereno 30 42 1016 vento: Nord O 7.4
30 Agosto 2026 11:30 tempo osservato: Sereno Sereno 28 45 1017 vento: Nord N 5.5
30 Agosto 2026 11:00 tempo osservato: Sereno Sereno 27 47 1017 vento: Nord N 7.4
30 Agosto 2026 10:30 tempo osservato: Sereno Sereno 26 50 1017 vento: Nord O 11.1
30 Agosto 2026 10:00 tempo osservato: Sereno Sereno 25 53 1017 vento: Nord O 11.1
30 Agosto 2026 09:30 tempo osservato: Sereno Sereno 24 57 1017 vento: Nord O 14.8
30 Agosto 2026 09:00 tempo osservato: Sereno Sereno 22 64 1017 vento: Nord O 20.3
30 Agosto 2026 08:30 tempo osservato: Sereno Sereno 21 68 1017 vento: Nord O 9.3
30 Agosto 2026 08:00 tempo osservato: Sereno Sereno 20 72 1017 vento: Nord O 9.3